Covington, KY

8:58 PM EST on January 20, 2018 (GMT -0500)
Cincinnati-Northern KY International

Weather History for KCVG - March, 2014

Change the Weather History Date:

Tuesday, March 11, 2014

  Actual Average Record
Temperature  
Mean Temperature 61 °F 42 °F  
Max Temperature 74 °F 51 °F 78 °F (1990)
Min Temperature 48 °F 33 °F 10 °F (1934)
Degree Days  
Heating Degree Days 4 23  
Month to date heating degree days 305 275  
Since 1 July heating degree days 4549 4102  
Cooling Degree Days 0 0  
Month to date cooling degree days 0 0  
Year to date cooling degree days 0 0  
Growing Degree Days 10 (Base 50)    
Moisture  
Dew Point 39 °F    
Average Humidity 50    
Maximum Humidity 77    
Minimum Humidity 23    
Precipitation  
Precipitation T in 0.12 in 1.97 in (1939)
Month to date precipitation 0.57 1.24  
Year to date precipitation 6.11 7.05  
Snow  
Snow 0.00 in 0.10 in 4.50 in (1959)
Month to date snowfall 2.2 1.4  
Since 1 July snowfall 45.8 20.0  
Snow Depth 0.00 in    
Sea Level Pressure  
Sea Level Pressure 29.67 in    
Wind  
Wind Speed 8 mph (SSW)    
Max Wind Speed 17 mph    
Max Gust Speed 23 mph    
Visibility 10 miles    
Events      
T = Trace of Precipitation, MM = Missing Value Source: NWS Daily Summary

Daily Weather History Graph

Daily Weather History Graph

Search for Another Location

Airport or City:

Trip Planner

Search our weather history database for the weather conditions in past years. The results will help you decide how hot, cold, wet, or windy it might be!

Date:

Astronomy

Mar. 11, 2014 Rise Set
Actual Time 7:56 AM EDT 7:41 PM EDT
Civil Twilight 7:29 AM EDT 8:08 PM EDT
Nautical Twilight 6:58 AM EDT 8:39 PM EDT
Astronomical Twilight 6:27 AM EDT 9:10 PM EDT
Moon 3:19 PM EDT (3/11) 4:47 AM EDT (3/11)
Length of Visible Light 12h 38m
Length of Day
11h 45m
Waxing Gibbous, 78% of the Moon is Illuminated
Mar 11
Waxing Gibbous
Mar 16
Full
Mar 23
Last Quarter
Mar 30
New
Apr 7
First Quarter

Hourly Weather History & Observations

Time (EDT) Temp. Dew Point Humidity Pressure Visibility Wind Dir Wind Speed Gust Speed Precip Events Conditions
12:52 AM 54.0 °F 35.1 °F 49% 29.74 in 10.0 mi SW 9.2 mph - N/A   Mostly Cloudy
1:52 AM 54.0 °F 37.0 °F 53% 29.74 in 10.0 mi SW 10.4 mph - N/A   Mostly Cloudy
2:52 AM 53.1 °F 37.9 °F 57% 29.73 in 10.0 mi SW 9.2 mph - N/A   Overcast
3:52 AM 53.1 °F 39.0 °F 59% 29.72 in 10.0 mi SW 10.4 mph - N/A   Overcast
4:52 AM 52.0 °F 39.9 °F 63% 29.72 in 10.0 mi SW 8.1 mph - N/A   Overcast
5:52 AM 51.1 °F 39.9 °F 66% 29.72 in 10.0 mi SW 5.8 mph - N/A   Overcast
6:52 AM 48.9 °F 39.9 °F 71% 29.72 in 10.0 mi SSW 5.8 mph - N/A   Overcast
7:52 AM 48.9 °F 39.9 °F 71% 29.72 in 10.0 mi SSW 5.8 mph - N/A   Mostly Cloudy
8:52 AM 48.9 °F 41.0 °F 74% 29.72 in 9.0 mi South 8.1 mph - N/A   Mostly Cloudy
9:52 AM 52.0 °F 42.1 °F 69% 29.73 in 9.0 mi SSW 9.2 mph - N/A   Mostly Cloudy
10:52 AM 55.9 °F 43.0 °F 62% 29.73 in 10.0 mi SW 8.1 mph - N/A   Mostly Cloudy
11:52 AM 61.0 °F 44.1 °F 54% 29.71 in 10.0 mi South 9.2 mph - N/A   Scattered Clouds
12:52 PM 62.1 °F 44.1 °F 52% 29.68 in 10.0 mi South 6.9 mph 16.1 mph N/A   Partly Cloudy
1:52 PM 66.0 °F 42.1 °F 42% 29.66 in 10.0 mi Variable 3.5 mph - N/A   Scattered Clouds
2:52 PM 69.1 °F 42.1 °F 38% 29.63 in 10.0 mi SSW 15.0 mph 20.7 mph N/A   Scattered Clouds
3:52 PM 71.1 °F 39.9 °F 32% 29.61 in 10.0 mi SW 12.7 mph - N/A   Scattered Clouds
4:52 PM 73.0 °F 37.9 °F 28% 29.60 in 10.0 mi WSW 10.4 mph 19.6 mph N/A   Scattered Clouds
5:52 PM 73.0 °F 33.1 °F 23% 29.59 in 10.0 mi WSW 10.4 mph 17.3 mph N/A   Scattered Clouds
6:52 PM 71.1 °F 35.1 °F 27% 29.58 in 10.0 mi SW 11.5 mph - N/A   Scattered Clouds
7:52 PM 66.0 °F 35.1 °F 32% 29.59 in 10.0 mi South 5.8 mph - N/A   Scattered Clouds
8:52 PM 66.9 °F 35.1 °F 31% 29.60 in 10.0 mi SSW 4.6 mph - N/A   Overcast
9:52 PM 62.1 °F 37.0 °F 39% 29.60 in 10.0 mi South 5.8 mph - N/A   Overcast
10:52 PM 64.0 °F 37.0 °F 37% 29.60 in 10.0 mi South 6.9 mph - 0.00 in   Overcast
11:52 PM 64.0 °F 37.9 °F 38% 29.57 in 10.0 mi SSW 8.1 mph - 0.00 in   Overcast